Sedona, AZ

8:05 AM MST on October 16, 2019 (GMT -0700)
Sedona

Weather History for KSEZ - August, 2019

Change the Weather History Date:

Saturday, August 31, 2019

  Actual Average Record
Temperature  
Mean Temperature 86 °F -  
Max Temperature 100 °F 92 °F 100 °F (2019)
Min Temperature 73 °F 60 °F 64 °F (2010)
Cooling Degree Days 22    
Growing Degree Days 36 (Base 50)    
Moisture  
Dew Point 43 °F    
Average Humidity 23    
Maximum Humidity 32    
Minimum Humidity 12    
Precipitation  
Precipitation 0.00 in - - ()
Sea Level Pressure  
Sea Level Pressure 30.13 in    
Wind  
Wind Speed 7 mph (SSE)    
Max Wind Speed 13 mph    
Max Gust Speed -    
Visibility 10 miles    
Events      
Averages and records for this station are not official NWS values.
T = Trace of Precipitation, MM = Missing Value Source: NWS Daily Summary

Daily Weather History Graph

Daily Weather History Graph

Search for Another Location

Airport or City:

Astronomy

Aug. 31, 2019 Rise Set
Actual Time 5:59 AM MST 6:55 PM MST
Civil Twilight 5:33 AM MST 7:21 PM MST
Nautical Twilight 5:02 AM MST 7:51 PM MST
Astronomical Twilight 4:31 AM MST 8:23 PM MST
Moon 7:18 AM MST (8/31) 8:13 PM MST (8/31)
Length of Visible Light 13h 47m
Length of Day
12h 56m
Waxing Crescent, 3% of the Moon is Illuminated
Aug 31
Waxing Crescent
Sep 5
First Quarter
Sep 13
Full
Sep 21
Last Quarter
Sep 28
New

Hourly Weather History & Observations

Time (MST) Temp. Dew Point Humidity Pressure Visibility Wind Dir Wind Speed Gust Speed Precip Events Conditions
12:15 AM 78.8 °F 42.8 °F 28% 30.14 in 10.0 mi NNE 6.9 mph - N/A   Clear
12:35 AM 78.8 °F 42.8 °F 28% 30.14 in 10.0 mi NNE 8.1 mph - N/A   Clear
12:55 AM 77.0 °F 42.8 °F 29% 30.14 in 10.0 mi NNE 10.4 mph - N/A   Clear
1:15 AM 77.0 °F 41.0 °F 28% 30.13 in 10.0 mi NNE 9.2 mph - N/A   Clear
1:35 AM 78.8 °F 41.0 °F 26% 30.13 in 10.0 mi NNE 10.4 mph - N/A   Clear
2:00 AM 78.8 °F 41.0 °F 26% 30.13 in 10.0 mi NNE 10.4 mph - N/A   Clear
2:15 AM 77.0 °F 41.0 °F 28% 30.13 in 10.0 mi NNE 12.7 mph - N/A   Clear
2:35 AM 78.8 °F 39.2 °F 24% 30.13 in 10.0 mi NE 10.4 mph - N/A   Clear
2:55 AM 77.0 °F 41.0 °F 28% 30.13 in 10.0 mi NNE 10.4 mph - N/A   Clear
3:15 AM 77.0 °F 41.0 °F 28% 30.13 in 10.0 mi NNE 11.5 mph - N/A   Clear
3:35 AM 77.0 °F 41.0 °F 28% 30.12 in 10.0 mi NNE 8.1 mph - N/A   Clear
3:55 AM 77.0 °F 41.0 °F 28% 30.13 in 10.0 mi NNE 9.2 mph - N/A   Clear
4:15 AM 77.0 °F 41.0 °F 28% 30.13 in 10.0 mi NNE 10.4 mph - N/A   Clear
4:35 AM 75.2 °F 41.0 °F 29% 30.13 in 10.0 mi NNE 11.5 mph - N/A   Clear
4:55 AM 77.0 °F 39.2 °F 26% 30.13 in 10.0 mi NNE 12.7 mph - N/A   Clear
5:15 AM 77.0 °F 39.2 °F 26% 30.14 in 10.0 mi NE 8.1 mph - N/A   Clear
5:35 AM 73.4 °F 39.2 °F 29% 30.15 in 10.0 mi NNE 10.4 mph - N/A   Clear
5:55 AM 75.2 °F 37.4 °F 25% 30.15 in 10.0 mi NE 11.5 mph - N/A   Clear
6:15 AM 75.2 °F 37.4 °F 25% 30.16 in 10.0 mi NE 6.9 mph - N/A   Clear
6:35 AM 77.0 °F 37.4 °F 24% 30.17 in 10.0 mi NE 6.9 mph - N/A   Clear
6:55 AM 77.0 °F 37.4 °F 24% 30.17 in 10.0 mi East 3.5 mph - N/A   Clear
7:15 AM 78.8 °F 39.2 °F 24% 30.18 in 10.0 mi ESE 3.5 mph - N/A   Clear
7:35 AM 78.8 °F 41.0 °F 26% 30.19 in 10.0 mi SE 5.8 mph - N/A   Clear
7:55 AM 78.8 °F 41.0 °F 26% 30.21 in 10.0 mi SE 5.8 mph - N/A   Clear
8:15 AM 80.6 °F 41.0 °F 24% 30.21 in 10.0 mi ESE 5.8 mph - N/A   Clear
8:35 AM 82.4 °F 42.8 °F 25% 30.21 in 10.0 mi SE 5.8 mph - N/A   Clear
8:55 AM 84.2 °F 42.8 °F 23% 30.21 in 10.0 mi SSE 5.8 mph - N/A   Clear
9:15 AM 84.2 °F 44.6 °F 25% 30.21 in 10.0 mi Calm Calm - N/A   Clear
9:35 AM 86.0 °F 44.6 °F 23% 30.21 in 10.0 mi South 3.5 mph - N/A   Clear
9:55 AM 86.0 °F 44.6 °F 23% 30.21 in 10.0 mi South 4.6 mph - N/A   Clear
10:15 AM 87.8 °F 44.6 °F 22% 30.20 in 10.0 mi SSE 5.8 mph - N/A   Clear
10:35 AM 87.8 °F 44.6 °F 22% 30.20 in 10.0 mi South 8.1 mph - N/A   Clear
10:55 AM 89.6 °F 46.4 °F 22% 30.20 in 10.0 mi SE 5.8 mph - N/A   Clear
11:15 AM 91.4 °F 46.4 °F 21% 30.19 in 10.0 mi South 3.5 mph - N/A   Clear
11:35 AM 89.6 °F 44.6 °F 21% 30.19 in 10.0 mi Calm Calm - N/A   Clear
11:55 AM 91.4 °F 44.6 °F 20% 30.18 in 10.0 mi SSE 5.8 mph - N/A   Clear
12:15 PM 91.4 °F 44.6 °F 20% 30.17 in 10.0 mi NNW 3.5 mph - N/A   Clear
12:35 PM 95.0 °F 44.6 °F 18% 30.16 in 10.0 mi SSW 4.6 mph - N/A   Clear
12:55 PM 96.8 °F 41.0 °F 15% 30.15 in 10.0 mi SSE 5.8 mph - N/A   Clear
1:15 PM 95.0 °F 41.0 °F 15% 30.15 in 10.0 mi WSW 5.8 mph - N/A   Clear
1:35 PM 95.0 °F 41.0 °F 15% 30.13 in 10.0 mi SSW 8.1 mph - N/A   Clear
1:55 PM 96.8 °F 41.0 °F 15% 30.12 in 10.0 mi South 4.6 mph - N/A   Clear
2:15 PM 100.4 °F 42.8 °F 14% 30.11 in 10.0 mi SW 6.9 mph - N/A   Clear
2:35 PM 100.4 °F 42.8 °F 14% 30.10 in 10.0 mi SSE 5.8 mph - N/A   Clear
2:55 PM 100.4 °F 41.0 °F 13% 30.09 in 10.0 mi South 3.5 mph - N/A   Clear
3:15 PM 98.6 °F 41.0 °F 14% 30.08 in 10.0 mi SSE 6.9 mph - N/A   Clear
3:35 PM 98.6 °F 41.0 °F 14% 30.08 in 10.0 mi Calm Calm - N/A   Clear
3:55 PM 100.4 °F 39.2 °F 12% 30.07 in 10.0 mi SSW 8.1 mph - N/A   Clear
4:15 PM 98.6 °F 39.2 °F 13% 30.06 in 10.0 mi South 8.1 mph - N/A   Clear
4:35 PM 98.6 °F 41.0 °F 14% 30.06 in 10.0 mi SSW 9.2 mph - N/A   Clear
4:55 PM 96.8 °F 37.4 °F 13% 30.06 in 10.0 mi South 6.9 mph - N/A   Clear
5:15 PM 96.8 °F 37.4 °F 13% 30.05 in 10.0 mi SSW 6.9 mph - N/A   Clear
5:35 PM 96.8 °F 37.4 °F 13% 30.05 in 10.0 mi West 10.4 mph - N/A   Clear
5:55 PM 95.0 °F 37.4 °F 13% 30.05 in 10.0 mi SW 8.1 mph - N/A   Clear
6:15 PM 95.0 °F 35.6 °F 12% 30.05 in 10.0 mi SSW 8.1 mph - N/A   Clear
6:35 PM 93.2 °F 37.4 °F 14% 30.06 in 10.0 mi SW 9.2 mph - N/A   Clear
6:55 PM 91.4 °F 41.0 °F 17% 30.06 in 10.0 mi SW 6.9 mph - N/A   Clear
7:20 PM 89.6 °F 44.6 °F 21% 30.06 in 10.0 mi SW 5.8 mph - N/A   Clear
7:30 PM 89.6 °F 44.6 °F 21% 30.06 in 10.0 mi SSW 5.8 mph - N/A   Clear
7:55 PM 87.8 °F 48.2 °F 25% 30.08 in 10.0 mi South 8.1 mph - N/A   Clear
8:15 PM 87.8 °F 50.0 °F 27% 30.09 in 10.0 mi South 6.9 mph - N/A   Clear
8:35 PM 86.0 °F 48.2 °F 27% 30.10 in 10.0 mi South 4.6 mph - N/A   Clear
8:55 PM 86.0 °F 48.2 °F 27% 30.11 in 10.0 mi South 5.8 mph - N/A   Clear
9:15 PM 86.0 °F 48.2 °F 27% 30.12 in 10.0 mi South 5.8 mph - N/A   Clear
9:35 PM 86.0 °F 48.2 °F 27% 30.12 in 10.0 mi South 3.5 mph - N/A   Clear
9:55 PM 84.2 °F 48.2 °F 29% 30.13 in 10.0 mi SE 3.5 mph - N/A   Clear
10:15 PM 84.2 °F 50.0 °F 30% 30.14 in 10.0 mi SSE 6.9 mph - N/A   Clear
10:35 PM 84.2 °F 50.0 °F 30% 30.14 in 10.0 mi Calm Calm - N/A   Clear
10:55 PM 82.4 °F 50.0 °F 32% 30.14 in 10.0 mi SW 4.6 mph - N/A   Clear
11:15 PM 82.4 °F 50.0 °F 32% 30.14 in 10.0 mi Calm Calm - N/A   Clear
11:35 PM 82.4 °F 48.2 °F 30% 30.14 in 10.0 mi Calm Calm - N/A   Clear
11:55 PM 82.4 °F 48.2 °F 30% 30.14 in 10.0 mi SW 3.5 mph - N/A   Clear